Overview Statistics Trail Chart Weather Telemetry Raw packets
 

This is the latest recevied weather packets stored in our database for station/object W0WFX-2. If no packets are shown the sender has not sent any weather packets the latest 10 day(s).

<< 102 103 104 105 106 107 108 >>
Time Temp. Humidity Pressure Rain* Wind** Luminosity Snow
1787871546 27.78° C 48% 1018 hPa 0 mm - 48 W/m² -
1787871242 27.78° C 48% 1018 hPa 0 mm - 61 W/m² -
1787870937 28.33° C 46% 1017.9 hPa 0 mm - 48 W/m² -
1787870636 28.33° C 46% 1017.9 hPa 0 mm - 49 W/m² -
1787870332 28.89° C 46% 1017.9 hPa 0 mm - 51 W/m² -
1787870027 29.44° C 44% 1018.1 hPa 0 mm - 68 W/m² -
1787869726 30° C 42% 1018 hPa 0 mm - 76 W/m² -
1787869426 30° C 41% 1018 hPa 0 mm - 322 W/m² -
1787869120 30.56° C 39% 1018.2 hPa 0 mm - 338 W/m² -
1787868819 30.56° C 42% 1018 hPa 0 mm - 354 W/m² -
1787868518 30° C 42% 1018.1 hPa 0 mm - 372 W/m² -
1787868217 30.56° C 41% 1018.3 hPa 0 mm - 387 W/m² -
1787867913 30.56° C 42% 1017.9 hPa 0 mm - 406 W/m² -
1787867608 30.56° C 48% 1018.1 hPa 0 mm - 422 W/m² -
1787867308 30.56° C 41% 1018.1 hPa 0 mm - 437 W/m² -
1787867006 30.56° C 43% 1018 hPa 0 mm - 455 W/m² -
1787866700 30.56° C 41% 1018 hPa 0 mm - 480 W/m² -
1787866398 31.11° C 42% 1018.1 hPa 0 mm - 491 W/m² -
1787866093 30.56° C 43% 1018.1 hPa 0 mm - 495 W/m² -
1787865788 30.56° C 42% 1018.2 hPa 0 mm - 510 W/m² -
1787865483 30.56° C 42% 1018.3 hPa 0 mm - 522 W/m² -
1787865178 30.56° C 41% 1018.1 hPa 0 mm - 534 W/m² -
1787864875 30.56° C 41% 1018.4 hPa 0 mm - 543 W/m² -
1787864574 30.56° C 40% 1018.2 hPa 0 mm - 559 W/m² -
1787864269 30.56° C 43% 1018.5 hPa 0 mm - 572 W/m² -

* Rain latest hour (hover to see other rain measurements)
** Current wind speed in m/s (hover to see current wind gust speed)